Teterboro, NJ

7:35 PM EST on February 18, 2018 (GMT -0500)
Teterboro

Weather History for KTEB - May, 2013

Change the Weather History Date:

Saturday, May 25, 2013

  Actual Average Record
Temperature  
Mean Temperature 49 °F -  
Max Temperature 54 °F 71 °F 93 °F (2007)
Min Temperature 45 °F 51 °F 45 °F (2013)
Degree Days  
Heating Degree Days 16    
Moisture  
Dew Point 41 °F    
Average Humidity 76    
Maximum Humidity 93    
Minimum Humidity 59    
Precipitation  
Precipitation 0.48 in - - ()
Sea Level Pressure  
Sea Level Pressure 29.93 in    
Wind  
Wind Speed 13 mph (NW)    
Max Wind Speed 23 mph    
Max Gust Speed 33 mph    
Visibility 10 miles    
Events Rain    
Averages and records for this station are not official NWS values.
T = Trace of Precipitation, MM = Missing Value Source: NWS Daily Summary

Daily Weather History Graph

Daily Weather History Graph

Search for Another Location

Airport or City:

Trip Planner

Search our weather history database for the weather conditions in past years. The results will help you decide how hot, cold, wet, or windy it might be!

Date:

Astronomy

May. 25, 2013 Rise Set
Actual Time 5:30 AM EDT 8:16 PM EDT
Civil Twilight 4:58 AM EDT 8:48 PM EDT
Nautical Twilight 4:18 AM EDT 9:29 PM EDT
Astronomical Twilight 3:31 AM EDT 10:15 PM EDT
Moon 9:01 PM EDT (5/25) 5:55 AM EDT (5/25)
Length of Visible Light 15h 50m
Length of Day
14h 45m
Full, 100% of the Moon is Illuminated
May 25
Full
May 31
Last Quarter
Jun 8
New
Jun 16
First Quarter
Jun 23
Full

Hourly Weather History & Observations

Time (EDT) Temp. Windchill Dew Point Humidity Pressure Visibility Wind Dir Wind Speed Gust Speed Precip Events Conditions
12:51 AM 45.0 °F 40.1 °F 42.1 °F 90% 29.93 in 7.0 mi NW 9.2 mph - 0.05 in Rain Rain
1:51 AM 45.0 °F 40.6 °F 42.1 °F 90% 29.91 in 10.0 mi NW 8.1 mph - 0.10 in Rain Light Rain
2:51 AM 45.0 °F 40.1 °F 42.1 °F 90% 29.90 in 10.0 mi NW 9.2 mph - 0.05 in Rain Light Rain
3:51 AM 45.0 °F 41.2 °F 43.0 °F 93% 29.90 in 9.0 mi NW 6.9 mph - 0.02 in Rain Light Rain
4:51 AM 45.0 °F 39.7 °F 42.1 °F 90% 29.90 in 10.0 mi NW 10.4 mph - 0.03 in Rain Light Rain
5:51 AM 45.0 °F 38.9 °F 42.1 °F 90% 29.91 in 10.0 mi NW 12.7 mph 17.3 mph 0.04 in Rain Light Rain
6:51 AM 45.0 °F 39.7 °F 43.0 °F 93% 29.91 in 8.0 mi NW 10.4 mph - 0.08 in Rain Rain
7:51 AM 46.0 °F 40.6 °F 43.0 °F 89% 29.91 in 10.0 mi NW 11.5 mph 16.1 mph 0.08 in Rain Light Rain
8:51 AM 46.9 °F - 43.0 °F 86% 29.91 in 10.0 mi NNW 8.1 mph - 0.01 in Rain Light Rain
9:51 AM 51.1 °F - 43.0 °F 74% 29.90 in 10.0 mi NW 18.4 mph 27.6 mph 0.00 in   Mostly Cloudy
10:51 AM 52.0 °F - 42.1 °F 69% 29.90 in 10.0 mi NW 21.9 mph 32.2 mph N/A   Overcast
11:51 AM 51.1 °F - 43.0 °F 74% 29.91 in 10.0 mi NW 20.7 mph 31.1 mph 0.00 in Rain Light Rain
12:51 PM 51.1 °F - 43.0 °F 74% 29.92 in 10.0 mi WNW 16.1 mph 28.8 mph 0.00 in Rain Light Rain
1:51 PM 52.0 °F - 43.0 °F 71% 29.91 in 10.0 mi NW 23.0 mph 31.1 mph 0.00 in Rain Light Rain
2:51 PM 52.0 °F - 43.0 °F 71% 29.92 in 10.0 mi NW 20.7 mph 27.6 mph 0.00 in Rain Light Rain
3:51 PM 53.1 °F - 42.1 °F 66% 29.93 in 9.0 mi NW 10.4 mph 23.0 mph 0.00 in Rain Light Rain
4:51 PM 52.0 °F - 43.0 °F 71% 29.94 in 8.0 mi NW 15.0 mph 25.3 mph 0.01 in Rain Rain
5:51 PM 52.0 °F - 42.1 °F 69% 29.95 in 10.0 mi NW 16.1 mph 29.9 mph 0.01 in Rain Light Rain
6:51 PM 52.0 °F - 39.0 °F 61% 29.97 in 10.0 mi NW 19.6 mph 29.9 mph 0.00 in   Partly Cloudy
7:51 PM 52.0 °F - 37.9 °F 59% 29.98 in 10.0 mi NW 16.1 mph 25.3 mph 0.00 in Rain Light Rain
8:51 PM 51.1 °F - 37.9 °F 61% 29.99 in 10.0 mi WNW 12.7 mph - 0.00 in Rain Light Rain
9:51 PM 50.0 °F - 37.9 °F 63% 30.00 in 10.0 mi NW 20.7 mph 28.8 mph 0.00 in Rain Light Rain
10:51 PM 50.0 °F - 37.9 °F 63% 29.99 in 10.0 mi NW 13.8 mph 25.3 mph 0.00 in Rain Light Rain
11:51 PM 48.9 °F - 37.0 °F 64% 29.98 in 10.0 mi WNW 21.9 mph 33.4 mph 0.00 in   Drizzle